Torna al catalogo

FLOCK 4G 11

AttivoScienzaSSO
NORAD 62629·PAYLOAD·🇺🇸 United States

Lanciato Jan 14, 2025 da Vandenberg Space Force Base

Loading…

Prossimi Passaggi (prossime 24 ore)

TLE

AggiornatoSource: CelesTrak SupGP

Epoca: Sep 14, 2026, 12:45 UTC

1 62629C 25009W   26257.53136574  .00015796  00000+0  52861-3 0  2576
2 62629  97.3872 338.5141 0002823  36.9898 131.1677 15.31010698    17

Traccia FLOCK 4G 11 in tempo reale con AllMySat

Download on the App Store